Home > Weather > Milan > Past weeks

Flag for Italy Weather for the Past 2 Weeks in Milan, Italy

Now
70 °F

Sunny.


Feels Like: 70 °F
Forecast: 54 / 73 °F
Wind: 6 mph from Southeast

Location: Milan / Linate

Current Time: May 6, 2016 at 9:06:32 PM

Latest Report: May 6, 2016 at 8:20 PM


Visibility: 10 mi

Pressure: 29.98 "Hg

Humidity: 35%

Dew Point: 41 °F

Location of MilanLocation

Historic Weather in Milan — Graph

°F

Milan Temperature Yesterday

Maximum temperature yesterday: 72 °F (at 4:50 PM)
Minimum temperature yesterday: 55 °F (at 5:50 AM)
Average temperature yesterday: 62 °F

High & Low Weather Summary for the Past Weeks

 TemperatureHumidityPressure
High77 °F (May 3, 4:50 PM)94% (Apr 24, 4:20 AM)30.21 "Hg (Apr 24, 4:20 AM)
Low41 °F (Apr 25, 4:20 AM)13% (Apr 27, 3:50 PM)29.50 "Hg (Apr 24, 2:20 PM)
Average59 °F55%29.90 "Hg
* Reported Apr 21 7:20 PM — May 6 7:50 PM, Milan, Weather by CustomWeather, © 2016

Note: Actual official high and low records may vary slightly from our data, if they occured in-between our weather recording intervals... More about our weather records

Advertising

Milan Weather History for the Previous 24 Hours

Scroll right to see more
 ConditionsComfort  
Time TempWeatherWind HumidityBarometerVisibility
7:50 PM
Fri, May 6
72 °FSunny.6 mph31%29.98 "Hg10 mi
7:20 PM72 °FPassing clouds.5 mph33%29.98 "HgN/A
6:50 PM72 °FPassing clouds.7 mph29%29.98 "HgN/A
6:20 PM73 °FPassing clouds.5 mph29%29.98 "HgN/A
5:50 PM73 °FPassing clouds.7 mph29%29.98 "HgN/A
5:20 PM73 °FPassing clouds.3 mph27%30.01 "HgN/A
4:50 PM73 °FScattered clouds.3 mph29%30.01 "HgN/A
4:20 PM73 °FScattered clouds.5 mph27%30.01 "HgN/A
3:50 PM73 °FScattered clouds.6 mph27%30.04 "HgN/A
3:20 PM73 °FPassing clouds.7 mph29%30.04 "HgN/A
2:50 PM73 °FPassing clouds.5 mph29%30.04 "HgN/A
2:20 PM72 °FPassing clouds.6 mph33%30.04 "HgN/A
1:50 PM72 °FScattered clouds.6 mph36%30.07 "HgN/A
1:20 PM72 °FPassing clouds.5 mph36%30.07 "HgN/A
12:50 PM72 °FPassing clouds.6 mph36%30.07 "HgN/A
12:20 PM70 °FPassing clouds.5 mph40%30.07 "HgN/A
11:50 AM70 °FSunny.5 mph43%30.09 "Hg10 mi
11:20 AM68 °FPassing clouds.5 mph43%30.09 "HgN/A
10:50 AM66 °FPassing clouds.6 mph49%30.09 "HgN/A
10:20 AM64 °FPassing clouds.5 mph52%30.09 "HgN/A
9:50 AM63 °FPassing clouds.5 mph59%30.09 "HgN/A
9:20 AM61 °FPassing clouds.5 mph59%30.09 "HgN/A
8:50 AM59 °FPassing clouds.5 mph63%30.09 "HgN/A
8:20 AM59 °FPassing clouds.5 mph63%30.12 "HgN/A
7:50 AM59 °FSunny.No wind59%30.12 "Hg10 mi
7:20 AM55 °FSunny.2 mph67%30.12 "Hg10 mi
6:50 AM54 °FClear.2 mph72%30.12 "Hg10 mi
6:20 AM50 °FClear.2 mph82%30.12 "Hg10 mi
5:50 AM50 °FClear.No wind82%30.12 "Hg10 mi
5:20 AM50 °FClear.2 mph76%30.12 "Hg10 mi
4:50 AM52 °FClear.No wind77%30.12 "Hg10 mi
4:20 AM52 °FClear.No wind77%30.12 "Hg10 mi
3:50 AM52 °FClear.No wind77%30.12 "Hg10 mi
3:20 AM54 °FClear.No wind72%30.15 "Hg10 mi
2:50 AM54 °FClear.2 mph72%30.15 "Hg10 mi
2:20 AM55 °FClear.2 mph67%30.15 "Hg10 mi
1:50 AM57 °FClear.5 mph67%30.15 "Hg10 mi
1:20 AM57 °FClear.3 mph63%30.15 "Hg10 mi
12:50 AM55 °FClear.2 mph72%30.15 "Hg10 mi
12:20 AM57 °FClear.2 mph63%30.15 "Hg10 mi
11:50 PM
Thu, May 5
57 °FClear.1 mph63%30.15 "Hg10 mi
11:20 PM57 °FClear.No wind67%30.15 "Hg10 mi
10:50 PM59 °FClear.2 mph59%30.12 "Hg10 mi
10:20 PM61 °FPassing clouds.3 mph55%30.12 "HgN/A
9:50 PM63 °FClear.2 mph52%30.12 "Hg10 mi
9:20 PM63 °FSunny.2 mph49%30.12 "Hg10 mi
Weather by CustomWeather, © 2016

See weather overviewHow to use our weather pages